Regional Weather Roundup
Issued by NWS Upton, NY

Current Version | Previous Version | Text Only | Print | Product List | Glossary Off
Versions: 1 2 3 4 5 6 7 8 9 10 11 12 13 14 15 16 17 18 19 20 21 22 23 24 25 26 27 28 29 30 31 32 33 34 35 36 37 38 39 40 41 42 43 44 45 46 47 48 49 50
000 ASUS41 KOKX 250908 RWROKX REGIONAL WEATHER ROUNDUP NATIONAL WEATHER SERVICE NEW YORK NY 500 AM EDT MON SEP 25 2017 NOTE: "FAIR" INDICATES FEW OR NO CLOUDS BELOW 12,000 FEET WITH NO SIGNIFICANT WEATHER AND/OR OBSTRUCTIONS TO VISIBILITY. NYZ071-072-176-178-NJZ106-104-251000- NEW YORK CITY METRO AREA CITY SKY/WX TMP DP RH WIND PRES REMARKS Central Park CLEAR 73 65 75 CALM 30.05R Bronx Bot Gard N/A 68 63 83 S1 30.02R LaGuardia APRT CLEAR 72 68 87 CALM 30.01S Kennedy INTL CLEAR 69 23 17 NE3 30.02S Breezy Point N/A 70 N/A N/A CALM N/A Newark/Liberty CLEAR 71 65 81 CALM 30.02R Teterboro CLEAR 70 66 87 CALM 30.01S $$ NYZ177-179-078>081-251000- LONG ISLAND NEW YORK CITY SKY/WX TMP DP RH WIND PRES REMARKS Jones Beach N/A 68 N/A N/A NE2 N/A Matinecock PT N/A 70 N/A N/A E2 N/A Farmingdale CLEAR 67 64 90 CALM 30.02S MacArthur/ISP CLEAR 65 63 93 N5 30.02S Shirley CLEAR 64 62 93 CALM 30.03S Mt Sinai Harb N/A N/A N/A N/A MISG N/A Westhampton CLEAR 59 56 89 CALM 30.05R East Hampton FAIR 58 57 95 CALM 30.03S Montauk N/A 63 62 97 CALM 30.04S $$ NYZ052-065-067-251000- HUDSON VALLEY CITY SKY/WX TMP DP RH WIND PRES REMARKS White Plains CLEAR 74 66 76 N7 30.02F Larchmont Harb N/A 68 N/A N/A N2 N/A Croton On Huds N/A 68 N/A N/A CALM N/A Newburgh CLEAR 70 68 94 CALM 30.07R Montgomery FOG 62 62 100 CALM 30.05S VSB 1/2 Poughkeepsie CLEAR 62 60 93 CALM 30.04S FOG Albany PTCLDY 66 64 93 CALM 30.08R $$ NJZ001-105-106-008-010-013-015-019>022-104-251000- NEW JERSEY CITY SKY/WX TMP DP RH WIND PRES REMARKS Newark/Liberty CLEAR 71 65 81 CALM 30.02R Teterboro CLEAR 70 66 87 CALM 30.01S Caldwell CLEAR 68 67 96 MISG 30.03S Somerville NOT AVBL Linden FAIR 71 65 83 CALM 30.03R Perth Amboy N/A 70 N/A N/A W2 N/A Sussex PTCLDY 62 62 100 CALM 30.06S Andover N/A 63 63 100 CALM 30.06S Trenton CLEAR 67 66 97 N3 30.02S Millville CLEAR 65 64 97 CALM 30.02S Atlantic City CLEAR 63 61 93 CALM 30.03S Wrightstown CLEAR 64 62 95 CALM 30.00S Toms River CLEAR 59 57 93 CALM 30.03S Belmar CLEAR 66 62 87 CALM 30.04S $$ PAZ047>061-062-071-251000- EASTERN PENNSYLVANIA CITY SKY/WX TMP DP RH WIND PRES REMARKS Philadelphia PTCLDY 70 67 90 CALM 30.02S Allentown CLEAR 66 63 90 CALM 30.05R Scranton CLEAR 66 64 93 E6 30.09R $$ CTZ002-004>006-009-010-012-RIZ004-006-007-MAZ004-011-015-251000- SOUTHERN NEW ENGLAND IN CT CITY SKY/WX TMP DP RH WIND PRES REMARKS Bradley INTL CLEAR 66 65 96 N6 30.04S Hartford CLEAR 66 65 96 CALM 30.04R Danbury CLEAR 64 61 90 CALM 30.06S Wtrbury/Oxford CLEAR 69 65 86 N6 30.06S Norwalk Harbor N/A 68 N/A N/A N2 N/A Bridgeport CLEAR 69 66 90 N5 30.03R Meriden CLEAR 63 62 97 CALM 30.04R New Haven CLEAR 65 62 90 CALM 30.03S Chester FAIR 64 63 94 MISG 30.04S Groton CLEAR 61 59 93 CALM 30.03S Wilimantic CLEAR 63 62 97 CALM 30.04S IN RI CITY SKY/WX TMP DP RH WIND PRES REMARKS Providence CLEAR 65 63 93 CALM 30.04S Block Island CLEAR 65 63 93 CALM 30.04S Westerly CLEAR 61 59 93 N3 30.04S IN MA CITY SKY/WX TMP DP RH WIND PRES REMARKS Boston PTCLDY 65 63 93 CALM 30.03S Worcester CLEAR 74 64 71 N6 30.07S Westfield CLEAR 66 65 96 CALM 30.05S Provincetown PTCLDY 63 63 100 SE3 30.05S Nantucket FOG 62 62 100 NE5 30.04S VSB 1/4 $$ ANZ330-335-338-340-345-350-353-355-251000- COASTAL MARINE OBSERVATIONS STATION/POSITION TIME SKY/WX TEMP WIND PRES VSBY WAVE AIR SEA DIR/SP/G HT/PER (UTC) (F) (DEG/KT/KT) (MB) (MI) (FT/S) NY HARB ENTRANCE 0750 71 71 120/ 2/ 4 1015.7 3/11 20 S FIRE ISLAND 0750 69 69 50/ 6/ 8 1016.3 4/12 GREAT SOUTH BAY 0830 70 72 70/ 2/ 2 N/A 23 SSW MONTAUK P 0750 66 65 1017.2 6/12 15 E BARNEGAT LI 0830 71 N/A 3/11 HUDSON CANYON 0750 66 69 60/ 10/ 10 1015.9 6/13 KINGS POINT 0824 69 72 80/ 1/ 2 1017.0 EXECUTION ROCKS 0845 71 100/ 4/ 4 N/A WESTERN LI SOUND NOT AVBL CENTRAL LI SOUND 0830 71 CALM N/A 0 EASTERN LI SOUND NOT AVBL ROBBINS REEF 0824 73 280/ 2/ 2 1016.9 $$ >>>>>>>>>>>>>>>>>>>>>>>>>>>> KEY <<<<<<<<<<<<<<<<<<<<<<<<<<< > < > SKY/WX - Sky Condition/Present Weather < > TMP - Temperature in Fahrenheit < > DP - Dew Point in Fahrenheit < > RH - Relative Humidity in Percent < > WIND - Direction (from) and Speed in MPH < > PRES - Mean Sea Level Pressure (inches of Hg) < > WCI - Wind Chill Index < > VSB - VISIBILITY IN MILES < > HX - HEAT INDEX < > TC - TEMPERATURE IN CELSIUS < > VRB - VARIABLE WIND DIRECTION < > < >>>>>>>>>>>>>>>>>>>>>>>>>>>> KEY <<<<<<<<<<<<<<<<<<<<<<<<<<<

USA.gov is the U.S. government's official web portal to all federal, state and local government web resources and services.